Year,Month,Day,Hour,Minute,Value (Times are PST for temperature in C)
2014,03,07,00,00,7.20
2014,03,07,00,01,7.20
2014,03,07,00,02,7.20
2014,03,07,00,03,7.20
2014,03,07,00,04,7.20
2014,03,07,00,05,7.20
2014,03,07,00,06,7.20
2014,03,07,00,07,7.20
2014,03,07,00,08,7.20
2014,03,07,00,09,7.20
2014,03,07,00,10,7.20
2014,03,07,00,11,7.20
2014,03,07,00,12,7.20
2014,03,07,00,13,7.20
2014,03,07,00,14,7.20
2014,03,07,00,15,7.20
2014,03,07,00,16,7.20
2014,03,07,00,17,7.20
2014,03,07,00,18,7.20
2014,03,07,00,19,7.10
2014,03,07,00,20,7.10
2014,03,07,00,21,7.10
2014,03,07,00,22,7.10
2014,03,07,00,23,7.10
2014,03,07,00,24,7.00
2014,03,07,00,25,7.00
2014,03,07,00,26,6.90
2014,03,07,00,27,6.90
2014,03,07,00,28,6.90
2014,03,07,00,29,6.90
2014,03,07,00,30,6.90
2014,03,07,00,31,6.80
2014,03,07,00,32,6.80
2014,03,07,00,33,6.80
2014,03,07,00,34,6.80
2014,03,07,00,35,6.80
2014,03,07,00,36,6.80
2014,03,07,00,37,6.70
2014,03,07,00,38,6.70
2014,03,07,00,39,6.70
2014,03,07,00,40,6.70
2014,03,07,00,41,6.70
2014,03,07,00,42,6.70
2014,03,07,00,43,6.60
2014,03,07,00,44,6.60
2014,03,07,00,45,6.60
2014,03,07,00,46,6.60
2014,03,07,00,47,6.50
2014,03,07,00,48,6.50
2014,03,07,00,49,6.40
2014,03,07,00,50,6.30
2014,03,07,00,51,6.30
2014,03,07,00,52,6.20
2014,03,07,00,53,6.20
2014,03,07,00,54,6.10
2014,03,07,00,55,6.10
2014,03,07,00,56,6.10
2014,03,07,00,57,6.00
2014,03,07,00,58,5.90
2014,03,07,00,59,5.90
2014,03,07,01,00,5.90
2014,03,07,01,01,5.90
2014,03,07,01,02,5.80
2014,03,07,01,03,5.80
2014,03,07,01,04,5.80
2014,03,07,01,05,5.80
2014,03,07,01,06,5.70
2014,03,07,01,07,5.70
2014,03,07,01,08,5.70
2014,03,07,01,09,5.70
2014,03,07,01,10,5.70
2014,03,07,01,11,5.70
2014,03,07,01,12,5.60
2014,03,07,01,13,5.60
2014,03,07,01,14,5.60
2014,03,07,01,15,5.60
2014,03,07,01,16,5.60
2014,03,07,01,17,5.60
2014,03,07,01,18,5.60
2014,03,07,01,19,5.50
2014,03,07,01,20,5.50
2014,03,07,01,21,5.50
2014,03,07,01,22,5.50
2014,03,07,01,23,5.50
2014,03,07,01,24,5.50
2014,03,07,01,25,5.40
2014,03,07,01,26,5.40
2014,03,07,01,27,5.40
2014,03,07,01,28,5.40
2014,03,07,01,29,5.40
2014,03,07,01,30,5.40
2014,03,07,01,31,5.30
2014,03,07,01,32,5.30
2014,03,07,01,33,5.30
2014,03,07,01,34,5.30
2014,03,07,01,35,5.30
2014,03,07,01,36,5.30
2014,03,07,01,37,5.20
2014,03,07,01,38,5.20
2014,03,07,01,39,5.20
2014,03,07,01,40,5.20
2014,03,07,01,41,5.20
2014,03,07,01,42,5.20
2014,03,07,01,43,5.20
2014,03,07,01,44,5.20
2014,03,07,01,45,5.20
2014,03,07,01,46,5.20
2014,03,07,01,47,5.20
2014,03,07,01,48,5.20
2014,03,07,01,49,5.20
2014,03,07,01,50,5.20
2014,03,07,01,51,5.20
2014,03,07,01,52,5.20
2014,03,07,01,53,5.20
2014,03,07,01,54,5.10
2014,03,07,01,55,5.10
2014,03,07,01,56,5.20
2014,03,07,01,57,5.20
2014,03,07,01,58,5.20
2014,03,07,01,59,5.20
2014,03,07,02,00,5.20
2014,03,07,02,01,5.30
2014,03,07,02,02,5.30
2014,03,07,02,03,5.40
2014,03,07,02,04,5.40
2014,03,07,02,05,5.40
2014,03,07,02,06,5.50
2014,03,07,02,07,5.50
2014,03,07,02,08,5.50
2014,03,07,02,09,5.60
2014,03,07,02,10,5.60
2014,03,07,02,11,5.60
2014,03,07,02,12,5.60
2014,03,07,02,13,5.60
2014,03,07,02,14,5.60
2014,03,07,02,15,5.50
2014,03,07,02,16,5.50
2014,03,07,02,17,5.50
2014,03,07,02,18,5.50
2014,03,07,02,19,5.40
2014,03,07,02,20,5.40
2014,03,07,02,21,5.40
2014,03,07,02,22,5.40
2014,03,07,02,23,5.40
2014,03,07,02,24,5.40
2014,03,07,02,25,5.40
2014,03,07,02,26,5.30
2014,03,07,02,27,5.40
2014,03,07,02,28,5.30
2014,03,07,02,29,5.30
2014,03,07,02,30,5.30
2014,03,07,02,31,5.30
2014,03,07,02,32,5.30
2014,03,07,02,33,5.30
2014,03,07,02,34,5.30
2014,03,07,02,35,5.30
2014,03,07,02,36,5.20
2014,03,07,02,37,5.20
2014,03,07,02,38,5.20
2014,03,07,02,39,5.20
2014,03,07,02,40,5.20
2014,03,07,02,41,5.20
2014,03,07,02,42,5.30
2014,03,07,02,43,5.30
2014,03,07,02,44,5.30
2014,03,07,02,45,5.30
2014,03,07,02,46,5.30
2014,03,07,02,47,5.30
2014,03,07,02,48,5.30
2014,03,07,02,49,5.30
2014,03,07,02,50,5.30
2014,03,07,02,51,5.30
2014,03,07,02,52,5.30
2014,03,07,02,53,5.30
2014,03,07,02,54,5.30
2014,03,07,02,55,5.30
2014,03,07,02,56,5.30
2014,03,07,02,57,5.30
2014,03,07,02,58,5.30
2014,03,07,02,59,5.20
2014,03,07,03,00,5.20
2014,03,07,03,01,5.20
2014,03,07,03,02,5.20
2014,03,07,03,03,5.20
2014,03,07,03,04,5.20
2014,03,07,03,05,5.20
2014,03,07,03,06,5.20
2014,03,07,03,07,5.20
2014,03,07,03,08,5.20
2014,03,07,03,09,5.20
2014,03,07,03,10,5.20
2014,03,07,03,11,5.20
2014,03,07,03,12,5.20
2014,03,07,03,13,5.20
2014,03,07,03,14,5.30
2014,03,07,03,15,5.30
2014,03,07,03,16,5.30
2014,03,07,03,17,5.30
2014,03,07,03,18,5.30
2014,03,07,03,19,5.30
2014,03,07,03,20,5.40
2014,03,07,03,21,5.40
2014,03,07,03,22,5.50
2014,03,07,03,23,5.50
2014,03,07,03,24,5.60
2014,03,07,03,25,5.60
2014,03,07,03,26,5.60
2014,03,07,03,27,5.70
2014,03,07,03,28,5.70
2014,03,07,03,29,5.70
2014,03,07,03,30,5.70
2014,03,07,03,31,5.70
2014,03,07,03,32,5.70
2014,03,07,03,33,5.80
2014,03,07,03,34,5.80
2014,03,07,03,35,5.80
2014,03,07,03,36,5.80
2014,03,07,03,37,5.80
2014,03,07,03,38,5.80
2014,03,07,03,39,5.70
2014,03,07,03,40,5.70
2014,03,07,03,41,5.60
2014,03,07,03,42,5.60
2014,03,07,03,43,5.60
2014,03,07,03,44,5.50
2014,03,07,03,45,5.50
2014,03,07,03,46,5.50
2014,03,07,03,47,5.50
2014,03,07,03,48,5.50
2014,03,07,03,49,5.40
2014,03,07,03,50,5.40
2014,03,07,03,51,5.40
2014,03,07,03,52,5.50
2014,03,07,03,53,5.40
2014,03,07,03,54,5.50
2014,03,07,03,55,5.50
2014,03,07,03,56,5.50
2014,03,07,03,57,5.50
2014,03,07,03,58,5.50
2014,03,07,03,59,5.50
2014,03,07,04,00,5.50
2014,03,07,04,01,5.50
2014,03,07,04,02,5.50
2014,03,07,04,03,5.50
2014,03,07,04,04,5.40
2014,03,07,04,05,5.40
2014,03,07,04,06,5.40
2014,03,07,04,07,5.40
2014,03,07,04,08,5.40
2014,03,07,04,09,5.40
2014,03,07,04,10,5.40
2014,03,07,04,11,5.40
2014,03,07,04,12,5.40
2014,03,07,04,13,5.40
2014,03,07,04,14,5.40
2014,03,07,04,15,5.40
2014,03,07,04,16,5.40
2014,03,07,04,17,5.40
2014,03,07,04,18,5.40
2014,03,07,04,19,5.40
2014,03,07,04,20,5.40
2014,03,07,04,21,5.40
2014,03,07,04,22,5.40
2014,03,07,04,23,5.40
2014,03,07,04,24,5.40
2014,03,07,04,25,5.40
2014,03,07,04,26,5.50
2014,03,07,04,27,5.50
2014,03,07,04,28,5.60
2014,03,07,04,29,5.60
2014,03,07,04,30,5.60
2014,03,07,04,31,5.60
2014,03,07,04,32,5.70
2014,03,07,04,33,5.70
2014,03,07,04,34,5.70
2014,03,07,04,35,5.70
2014,03,07,04,36,5.70
2014,03,07,04,37,5.60
2014,03,07,04,38,5.60
2014,03,07,04,39,5.60
2014,03,07,04,40,5.60
2014,03,07,04,41,5.60
2014,03,07,04,42,5.60
2014,03,07,04,43,5.70
2014,03,07,04,44,5.70
2014,03,07,04,45,5.70
2014,03,07,04,46,5.80
2014,03,07,04,47,5.80
2014,03,07,04,48,5.80
2014,03,07,04,49,5.90
2014,03,07,04,50,5.90
2014,03,07,04,51,5.90
2014,03,07,04,52,5.90
2014,03,07,04,53,6.00
2014,03,07,04,54,6.00
2014,03,07,04,55,6.00
2014,03,07,04,56,6.10
2014,03,07,04,57,6.10
2014,03,07,04,58,6.10
2014,03,07,04,59,6.10
2014,03,07,05,00,6.20
2014,03,07,05,01,6.20
2014,03,07,05,02,6.20
2014,03,07,05,03,6.20
2014,03,07,05,04,6.20
2014,03,07,05,05,6.20
2014,03,07,05,06,6.20
2014,03,07,05,07,6.20
2014,03,07,05,08,6.20
2014,03,07,05,09,6.20
2014,03,07,05,10,6.20
2014,03,07,05,11,6.20
2014,03,07,05,12,6.20
2014,03,07,05,13,6.30
2014,03,07,05,14,6.30
2014,03,07,05,15,6.40
2014,03,07,05,16,6.50
2014,03,07,05,17,6.60
2014,03,07,05,18,6.70
2014,03,07,05,19,6.80
2014,03,07,05,20,6.90
2014,03,07,05,21,7.00
2014,03,07,05,22,7.20
2014,03,07,05,23,7.20
2014,03,07,05,24,7.30
2014,03,07,05,25,7.30
2014,03,07,05,26,7.30
2014,03,07,05,27,7.30
2014,03,07,05,28,7.30
2014,03,07,05,29,7.20
2014,03,07,05,30,7.20
2014,03,07,05,31,7.20
2014,03,07,05,32,7.20
2014,03,07,05,33,7.10
2014,03,07,05,34,7.10
2014,03,07,05,35,7.10
2014,03,07,05,36,7.10
2014,03,07,05,37,7.10
2014,03,07,05,38,7.00
2014,03,07,05,39,7.10
2014,03,07,05,40,7.10
2014,03,07,05,41,7.10
2014,03,07,05,42,7.10
2014,03,07,05,43,7.10
2014,03,07,05,44,7.10
2014,03,07,05,45,7.20
2014,03,07,05,46,7.20
2014,03,07,05,47,7.20
2014,03,07,05,48,7.20
2014,03,07,05,49,7.20
2014,03,07,05,50,7.20
2014,03,07,05,51,7.20
2014,03,07,05,52,7.20
2014,03,07,05,53,7.30
2014,03,07,05,54,7.30
2014,03,07,05,55,7.30
2014,03,07,05,56,7.40
2014,03,07,05,57,7.40
2014,03,07,05,58,7.50
2014,03,07,05,59,7.50
2014,03,07,06,00,7.60
2014,03,07,06,01,7.60
2014,03,07,06,02,7.60
2014,03,07,06,03,7.70
2014,03,07,06,04,7.70
2014,03,07,06,05,7.70
2014,03,07,06,06,7.70
2014,03,07,06,07,7.80
2014,03,07,06,08,7.80
2014,03,07,06,09,7.80
2014,03,07,06,10,7.80
2014,03,07,06,11,7.80
2014,03,07,06,12,7.80
2014,03,07,06,13,7.80
2014,03,07,06,14,7.80
2014,03,07,06,15,7.80
2014,03,07,06,16,7.80
2014,03,07,06,17,7.80
2014,03,07,06,18,7.80
2014,03,07,06,19,7.80
2014,03,07,06,20,7.80
2014,03,07,06,21,7.70
2014,03,07,06,22,7.60
2014,03,07,06,23,7.50
2014,03,07,06,24,7.40
2014,03,07,06,25,7.40
2014,03,07,06,26,7.30
2014,03,07,06,27,7.20
2014,03,07,06,28,7.20
2014,03,07,06,29,7.20
2014,03,07,06,30,7.20
2014,03,07,06,31,7.20
2014,03,07,06,32,7.30
2014,03,07,06,33,7.30
2014,03,07,06,34,7.30
2014,03,07,06,35,7.40
2014,03,07,06,36,7.40
2014,03,07,06,37,7.40
2014,03,07,06,38,7.40
2014,03,07,06,39,7.50
2014,03,07,06,40,7.50
2014,03,07,06,41,7.50
2014,03,07,06,42,7.40
2014,03,07,06,43,7.40
2014,03,07,06,44,7.40
2014,03,07,06,45,7.30
2014,03,07,06,46,7.30
2014,03,07,06,47,7.30
2014,03,07,06,48,7.20
2014,03,07,06,49,7.20
2014,03,07,06,50,7.20
2014,03,07,06,51,7.10
2014,03,07,06,52,7.00
2014,03,07,06,53,7.00
2014,03,07,06,54,6.90
2014,03,07,06,55,6.90
2014,03,07,06,56,6.80
2014,03,07,06,57,6.80
2014,03,07,06,58,6.80
2014,03,07,06,59,6.70
2014,03,07,07,00,6.70
2014,03,07,07,01,6.70
2014,03,07,07,02,6.70
2014,03,07,07,03,6.70
2014,03,07,07,04,6.70
2014,03,07,07,05,6.70
2014,03,07,07,06,6.70
2014,03,07,07,07,6.70
2014,03,07,07,08,6.70
2014,03,07,07,09,6.70
2014,03,07,07,10,6.70
2014,03,07,07,11,6.70
2014,03,07,07,12,6.70
2014,03,07,07,13,6.70
2014,03,07,07,14,6.70
2014,03,07,07,15,6.70
2014,03,07,07,16,6.70
2014,03,07,07,17,6.70
2014,03,07,07,18,6.70
2014,03,07,07,19,6.70
2014,03,07,07,20,6.70
2014,03,07,07,21,6.70
2014,03,07,07,22,6.70
2014,03,07,07,23,6.70
2014,03,07,07,24,6.70
2014,03,07,07,25,6.70
2014,03,07,07,26,6.70
2014,03,07,07,27,6.70
2014,03,07,07,28,6.60
2014,03,07,07,29,6.60
2014,03,07,07,30,6.60
2014,03,07,07,31,6.60
2014,03,07,07,32,6.60
2014,03,07,07,33,6.60
2014,03,07,07,34,6.60
2014,03,07,07,35,6.60
2014,03,07,07,36,6.60
2014,03,07,07,37,6.60
2014,03,07,07,38,6.60
2014,03,07,07,39,6.60
2014,03,07,07,40,6.60
2014,03,07,07,41,6.70
2014,03,07,07,42,6.70
2014,03,07,07,43,6.80
2014,03,07,07,44,6.80
2014,03,07,07,45,6.90
2014,03,07,07,46,6.90
2014,03,07,07,47,6.90
2014,03,07,07,48,7.00
2014,03,07,07,49,7.10
2014,03,07,07,50,7.10
2014,03,07,07,51,7.10
2014,03,07,07,52,7.20
2014,03,07,07,53,7.20
2014,03,07,07,54,7.20
2014,03,07,07,55,7.20
2014,03,07,07,56,7.10
2014,03,07,07,57,7.10
2014,03,07,07,58,7.10
2014,03,07,07,59,7.10
2014,03,07,08,00,7.10
2014,03,07,08,01,7.10
2014,03,07,08,02,7.10
2014,03,07,08,03,7.10
2014,03,07,08,04,7.10
2014,03,07,08,05,7.10
2014,03,07,08,06,7.10
2014,03,07,08,07,7.10
2014,03,07,08,08,7.10
2014,03,07,08,09,7.10
2014,03,07,08,10,7.10
2014,03,07,08,11,7.10
2014,03,07,08,12,7.10
2014,03,07,08,13,7.10
2014,03,07,08,14,7.10
2014,03,07,08,15,7.20
2014,03,07,08,16,7.20
2014,03,07,08,17,7.20
2014,03,07,08,18,7.20
2014,03,07,08,19,7.20
2014,03,07,08,20,7.20
2014,03,07,08,21,7.20
2014,03,07,08,22,7.20
2014,03,07,08,23,7.20
2014,03,07,08,24,7.20
2014,03,07,08,25,7.20
2014,03,07,08,26,7.20
2014,03,07,08,27,7.20
2014,03,07,08,28,7.20
2014,03,07,08,29,7.30
2014,03,07,08,30,7.30
2014,03,07,08,31,7.30
2014,03,07,08,32,7.30
2014,03,07,08,33,7.30
2014,03,07,08,34,7.40
2014,03,07,08,35,7.40
2014,03,07,08,36,7.40
2014,03,07,08,37,7.40
2014,03,07,08,38,7.40
2014,03,07,08,39,7.50
2014,03,07,08,40,7.50
2014,03,07,08,41,7.40
2014,03,07,08,42,7.40
2014,03,07,08,43,7.40
2014,03,07,08,44,7.40
2014,03,07,08,45,7.40
2014,03,07,08,46,7.40
2014,03,07,08,47,7.30
2014,03,07,08,48,7.30
2014,03,07,08,49,7.30
2014,03,07,08,50,7.30
2014,03,07,08,51,7.30
2014,03,07,08,52,7.30
2014,03,07,08,53,7.30
2014,03,07,08,54,7.40
2014,03,07,08,55,7.40
2014,03,07,08,56,7.40
2014,03,07,08,57,7.40
2014,03,07,08,58,7.40
2014,03,07,08,59,7.40
2014,03,07,09,00,7.40
2014,03,07,09,01,7.40
2014,03,07,09,02,7.40
2014,03,07,09,03,7.40
2014,03,07,09,04,7.50
2014,03,07,09,05,7.50
2014,03,07,09,06,7.50
2014,03,07,09,07,7.50
2014,03,07,09,08,7.60
2014,03,07,09,09,7.60
2014,03,07,09,10,7.60
2014,03,07,09,11,7.70
2014,03,07,09,12,7.70
2014,03,07,09,13,7.70
2014,03,07,09,14,7.80
2014,03,07,09,15,7.80
2014,03,07,09,16,7.80
2014,03,07,09,17,7.90
2014,03,07,09,18,7.90
2014,03,07,09,19,7.90
2014,03,07,09,20,7.90
2014,03,07,09,21,8.00
2014,03,07,09,22,8.00
2014,03,07,09,23,8.10
2014,03,07,09,24,8.10
2014,03,07,09,25,8.20
2014,03,07,09,26,8.20
2014,03,07,09,27,8.30
2014,03,07,09,28,8.30
2014,03,07,09,29,8.40
2014,03,07,09,30,8.40
2014,03,07,09,31,8.50
2014,03,07,09,32,8.50
2014,03,07,09,33,8.60
2014,03,07,09,34,8.60
2014,03,07,09,35,8.60
2014,03,07,09,36,8.60
2014,03,07,09,37,8.60
2014,03,07,09,38,8.60
2014,03,07,09,39,8.70
2014,03,07,09,40,8.70
2014,03,07,09,41,8.70
2014,03,07,09,42,8.70
2014,03,07,09,43,8.70
2014,03,07,09,44,8.80
2014,03,07,09,45,8.80
2014,03,07,09,46,8.80
2014,03,07,09,47,8.90
2014,03,07,09,48,8.90
2014,03,07,09,49,8.90
2014,03,07,09,50,9.00
2014,03,07,09,51,9.00
2014,03,07,09,52,9.00
2014,03,07,09,53,9.10
2014,03,07,09,54,9.10
2014,03,07,09,55,9.10
2014,03,07,09,56,9.20
2014,03,07,09,57,9.20
2014,03,07,09,58,9.20
2014,03,07,09,59,9.20
2014,03,07,10,00,9.20
2014,03,07,10,01,9.20
2014,03,07,10,02,9.30
2014,03,07,10,03,9.30
2014,03,07,10,04,9.30
2014,03,07,10,05,9.30
2014,03,07,10,06,9.30
2014,03,07,10,07,9.40
2014,03,07,10,08,9.40
2014,03,07,10,09,9.40
2014,03,07,10,10,9.40
2014,03,07,10,11,9.40
2014,03,07,10,12,9.40
2014,03,07,10,13,9.40
2014,03,07,10,14,9.40
2014,03,07,10,15,9.40
2014,03,07,10,16,9.50
2014,03,07,10,17,9.50
2014,03,07,10,18,9.50
2014,03,07,10,19,9.50
2014,03,07,10,20,9.50
2014,03,07,10,21,9.60
2014,03,07,10,22,9.60
2014,03,07,10,23,9.60
2014,03,07,10,24,9.60
2014,03,07,10,25,9.60
2014,03,07,10,26,9.60
2014,03,07,10,27,9.60
2014,03,07,10,28,9.60
2014,03,07,10,29,9.60
2014,03,07,10,30,9.50
2014,03,07,10,31,9.50
2014,03,07,10,32,9.50
2014,03,07,10,33,9.40
2014,03,07,10,34,9.40
2014,03,07,10,35,9.40
2014,03,07,10,36,9.40
2014,03,07,10,37,9.30
2014,03,07,10,38,9.30
2014,03,07,10,39,9.30
2014,03,07,10,40,9.30
2014,03,07,10,41,9.30
2014,03,07,10,42,9.30
2014,03,07,10,43,9.30
2014,03,07,10,44,9.30
2014,03,07,10,45,9.30
2014,03,07,10,46,9.30
2014,03,07,10,47,9.30
2014,03,07,10,48,9.30
2014,03,07,10,49,9.30
2014,03,07,10,50,9.30
2014,03,07,10,51,9.30
2014,03,07,10,52,9.30
2014,03,07,10,53,9.30
2014,03,07,10,54,9.30
2014,03,07,10,55,9.40
2014,03,07,10,56,9.40
2014,03,07,10,57,9.40
2014,03,07,10,58,9.40
2014,03,07,10,59,9.40
2014,03,07,11,00,9.40
2014,03,07,11,01,9.50
2014,03,07,11,02,9.50
2014,03,07,11,03,9.50
2014,03,07,11,04,9.50
2014,03,07,11,05,9.50
2014,03,07,11,06,9.50
2014,03,07,11,07,9.50
2014,03,07,11,08,9.50
2014,03,07,11,09,9.50
2014,03,07,11,10,9.50
2014,03,07,11,11,9.50
2014,03,07,11,12,9.50
2014,03,07,11,13,9.50
2014,03,07,11,14,9.50
2014,03,07,11,15,9.60
2014,03,07,11,16,9.60
2014,03,07,11,17,9.60
2014,03,07,11,18,9.60
2014,03,07,11,19,9.60
2014,03,07,11,20,9.60
2014,03,07,11,21,9.60
2014,03,07,11,22,9.60
2014,03,07,11,23,9.60
2014,03,07,11,24,9.60
2014,03,07,11,25,9.60
2014,03,07,11,26,9.60
2014,03,07,11,27,9.60
2014,03,07,11,28,9.60
2014,03,07,11,29,9.60
2014,03,07,11,30,9.60
2014,03,07,11,31,9.60
2014,03,07,11,32,9.60
2014,03,07,11,33,9.60
2014,03,07,11,34,9.60
2014,03,07,11,35,9.60
2014,03,07,11,36,9.60
2014,03,07,11,37,9.60
2014,03,07,11,38,9.60
2014,03,07,11,39,9.60
2014,03,07,11,40,9.60
2014,03,07,11,41,9.60
2014,03,07,11,42,9.60
2014,03,07,11,43,9.60
2014,03,07,11,44,9.60
2014,03,07,11,45,9.60
2014,03,07,11,46,9.60
2014,03,07,11,47,9.60
2014,03,07,11,48,9.60
2014,03,07,11,49,9.60
2014,03,07,11,50,9.60
2014,03,07,11,51,9.60
2014,03,07,11,52,9.60
2014,03,07,11,53,9.60
2014,03,07,11,54,9.60
2014,03,07,11,55,9.60
2014,03,07,11,56,9.60
2014,03,07,11,57,9.60
2014,03,07,11,58,9.60
2014,03,07,11,59,9.60
2014,03,07,12,00,9.70
2014,03,07,12,01,9.70
2014,03,07,12,02,9.70
2014,03,07,12,03,9.70
2014,03,07,12,04,9.70
2014,03,07,12,05,9.70
2014,03,07,12,06,9.80
2014,03,07,12,07,9.80
2014,03,07,12,08,9.80
2014,03,07,12,09,9.80
2014,03,07,12,10,9.90
2014,03,07,12,11,9.90
2014,03,07,12,12,9.90
2014,03,07,12,13,9.90
2014,03,07,12,14,9.90
2014,03,07,12,15,9.90
2014,03,07,12,16,9.90
2014,03,07,12,17,10.00
2014,03,07,12,18,10.00
2014,03,07,12,19,10.00
2014,03,07,12,20,10.10
2014,03,07,12,21,10.10
2014,03,07,12,22,10.10
2014,03,07,12,23,10.10
2014,03,07,12,24,10.10
2014,03,07,12,25,10.10
2014,03,07,12,26,10.20
2014,03,07,12,27,10.20
2014,03,07,12,28,10.20
2014,03,07,12,29,10.20
2014,03,07,12,30,10.20
2014,03,07,12,31,10.20
2014,03,07,12,32,10.20
2014,03,07,12,33,10.20
2014,03,07,12,34,10.20
2014,03,07,12,35,10.20
2014,03,07,12,36,10.20
2014,03,07,12,37,10.20
2014,03,07,12,38,10.20
2014,03,07,12,39,10.20
2014,03,07,12,40,10.20
2014,03,07,12,41,10.20
2014,03,07,12,42,10.20
2014,03,07,12,43,10.20
2014,03,07,12,44,10.20
2014,03,07,12,45,10.20
2014,03,07,12,46,10.20
2014,03,07,12,47,10.20
2014,03,07,12,48,10.20
2014,03,07,12,49,10.20
2014,03,07,12,50,10.20
2014,03,07,12,51,10.20
2014,03,07,12,52,10.20
2014,03,07,12,53,10.20
2014,03,07,12,54,10.20
2014,03,07,12,55,10.20
2014,03,07,12,56,10.20
2014,03,07,12,57,10.20
2014,03,07,12,58,10.20
2014,03,07,12,59,10.20
2014,03,07,13,00,10.30
2014,03,07,13,01,10.30
2014,03,07,13,02,10.30
2014,03,07,13,03,10.30
2014,03,07,13,04,10.30
2014,03,07,13,05,10.30
2014,03,07,13,06,10.30
2014,03,07,13,07,10.30
2014,03,07,13,08,10.30
2014,03,07,13,09,10.30
2014,03,07,13,10,10.30
2014,03,07,13,11,10.30
2014,03,07,13,12,10.30
2014,03,07,13,13,10.30
2014,03,07,13,14,10.30
2014,03,07,13,15,10.40
2014,03,07,13,16,10.40
2014,03,07,13,17,10.40
2014,03,07,13,18,10.40
2014,03,07,13,19,10.40
2014,03,07,13,20,10.40
2014,03,07,13,21,10.40
2014,03,07,13,22,10.40
2014,03,07,13,23,10.40
2014,03,07,13,24,10.40
2014,03,07,13,25,10.40
2014,03,07,13,26,10.50
2014,03,07,13,27,10.50
2014,03,07,13,28,10.50
2014,03,07,13,29,10.60
2014,03,07,13,30,10.60
2014,03,07,13,31,10.60
2014,03,07,13,32,10.70
2014,03,07,13,33,10.80
2014,03,07,13,34,10.80
2014,03,07,13,35,10.80
2014,03,07,13,36,10.90
2014,03,07,13,37,10.90
2014,03,07,13,38,10.90
2014,03,07,13,39,11.00
2014,03,07,13,40,11.00
2014,03,07,13,41,11.00
2014,03,07,13,42,11.10
2014,03,07,13,43,11.10
2014,03,07,13,44,11.10
2014,03,07,13,45,11.20
2014,03,07,13,46,11.20
2014,03,07,13,47,11.20
2014,03,07,13,48,11.30
2014,03,07,13,49,11.30
2014,03,07,13,50,11.40
2014,03,07,13,51,11.40
2014,03,07,13,52,11.40
2014,03,07,13,53,11.40
2014,03,07,13,54,11.50
2014,03,07,13,55,11.50
2014,03,07,13,56,11.50
2014,03,07,13,57,11.60
2014,03,07,13,58,11.60
2014,03,07,13,59,11.60
2014,03,07,14,00,11.50
2014,03,07,14,01,11.50
2014,03,07,14,02,11.40
2014,03,07,14,03,11.40
2014,03,07,14,04,11.40
2014,03,07,14,05,11.40
2014,03,07,14,06,11.40
2014,03,07,14,07,11.30
2014,03,07,14,08,11.30
2014,03,07,14,09,11.30
2014,03,07,14,10,11.30
2014,03,07,14,11,11.20
2014,03,07,14,12,11.20
2014,03,07,14,13,11.20
2014,03,07,14,14,11.20
2014,03,07,14,15,11.20
2014,03,07,14,16,11.20
2014,03,07,14,17,11.20
2014,03,07,14,18,11.20
2014,03,07,14,19,11.20
2014,03,07,14,20,11.20
2014,03,07,14,21,11.20
2014,03,07,14,22,11.20
2014,03,07,14,23,11.20
2014,03,07,14,24,11.20
2014,03,07,14,25,11.20
2014,03,07,14,26,11.30
2014,03,07,14,27,11.30
2014,03,07,14,28,11.30
2014,03,07,14,29,11.30
2014,03,07,14,30,11.30
2014,03,07,14,31,11.30
2014,03,07,14,32,11.30
2014,03,07,14,33,11.30
2014,03,07,14,34,11.30
2014,03,07,14,35,11.30
2014,03,07,14,36,11.30
2014,03,07,14,37,11.30
2014,03,07,14,38,11.20
2014,03,07,14,39,11.20
2014,03,07,14,40,11.30
2014,03,07,14,41,11.30
2014,03,07,14,42,11.30
2014,03,07,14,43,11.40
2014,03,07,14,44,11.50
2014,03,07,14,45,11.60
2014,03,07,14,46,11.70
2014,03,07,14,47,11.80
2014,03,07,14,48,11.80
2014,03,07,14,49,11.80
2014,03,07,14,50,11.80
2014,03,07,14,51,11.80
2014,03,07,14,52,11.80
2014,03,07,14,53,11.80
2014,03,07,14,54,11.80
2014,03,07,14,55,11.70
2014,03,07,14,56,11.70
2014,03,07,14,57,11.70
2014,03,07,14,58,11.70
2014,03,07,14,59,11.70
2014,03,07,15,00,11.70
2014,03,07,15,01,11.60
2014,03,07,15,02,11.60
2014,03,07,15,03,11.60
2014,03,07,15,04,11.50
2014,03,07,15,05,11.50
2014,03,07,15,06,11.40
2014,03,07,15,07,11.40
2014,03,07,15,08,11.40
2014,03,07,15,09,11.40
2014,03,07,15,10,11.40
2014,03,07,15,11,11.30
2014,03,07,15,12,11.30
2014,03,07,15,13,11.30
2014,03,07,15,14,11.30
2014,03,07,15,15,11.40
2014,03,07,15,16,11.40
2014,03,07,15,17,11.50
2014,03,07,15,18,11.60
2014,03,07,15,19,11.70
2014,03,07,15,20,11.80
2014,03,07,15,21,12.00
2014,03,07,15,22,12.10
2014,03,07,15,23,12.20
2014,03,07,15,24,12.30
2014,03,07,15,25,12.40
2014,03,07,15,26,12.50
2014,03,07,15,27,12.60
2014,03,07,15,28,12.70
2014,03,07,15,29,12.70
2014,03,07,15,30,12.80
2014,03,07,15,31,12.80
2014,03,07,15,32,12.90
2014,03,07,15,33,12.90
2014,03,07,15,34,13.00
2014,03,07,15,35,13.10
2014,03,07,15,36,13.00
2014,03,07,15,37,12.90
2014,03,07,15,38,12.80
2014,03,07,15,39,12.80
2014,03,07,15,40,12.80
2014,03,07,15,41,12.70
2014,03,07,15,42,12.70
2014,03,07,15,43,12.60
2014,03,07,15,44,12.60
2014,03,07,15,45,12.60
2014,03,07,15,46,12.50
2014,03,07,15,47,12.50
2014,03,07,15,48,12.50
2014,03,07,15,49,12.40
2014,03,07,15,50,12.40
2014,03,07,15,51,12.40
2014,03,07,15,52,12.30
2014,03,07,15,53,12.30
2014,03,07,15,54,12.20
2014,03,07,15,55,12.20
2014,03,07,15,56,12.10
2014,03,07,15,57,12.00
2014,03,07,15,58,11.90
2014,03,07,15,59,11.80
2014,03,07,16,00,11.80
2014,03,07,16,01,11.70
2014,03,07,16,02,11.60
2014,03,07,16,03,11.60
2014,03,07,16,04,11.50
2014,03,07,16,05,11.40
2014,03,07,16,06,11.30
2014,03,07,16,07,11.30
2014,03,07,16,08,11.30
2014,03,07,16,09,11.20
2014,03,07,16,10,11.20
2014,03,07,16,11,11.20
2014,03,07,16,12,11.20
2014,03,07,16,13,11.10
2014,03,07,16,14,11.00
2014,03,07,16,15,11.00
2014,03,07,16,16,11.00
2014,03,07,16,17,10.90
2014,03,07,16,18,10.90
2014,03,07,16,19,10.90
2014,03,07,16,20,10.90
2014,03,07,16,21,10.90
2014,03,07,16,22,10.90
2014,03,07,16,23,10.90
2014,03,07,16,24,10.90
2014,03,07,16,25,10.90
2014,03,07,16,26,10.90
2014,03,07,16,27,10.90
2014,03,07,16,28,10.80
2014,03,07,16,29,10.80
2014,03,07,16,30,10.80
2014,03,07,16,31,10.80
2014,03,07,16,32,10.80
2014,03,07,16,33,10.80
2014,03,07,16,34,10.80
2014,03,07,16,35,10.80
2014,03,07,16,36,10.80
2014,03,07,16,37,10.90
2014,03,07,16,38,10.90
2014,03,07,16,39,11.00
2014,03,07,16,40,11.10
2014,03,07,16,41,11.20
2014,03,07,16,42,11.20
2014,03,07,16,43,11.30
2014,03,07,16,44,11.30
2014,03,07,16,45,11.30
2014,03,07,16,46,11.40
2014,03,07,16,47,11.40
2014,03,07,16,48,11.40
2014,03,07,16,49,11.50
2014,03,07,16,50,11.50
2014,03,07,16,51,11.50
2014,03,07,16,52,11.50
2014,03,07,16,53,11.40
2014,03,07,16,54,11.40
2014,03,07,16,55,11.40
2014,03,07,16,56,11.40
2014,03,07,16,57,11.30
2014,03,07,16,58,11.30
2014,03,07,16,59,11.30
2014,03,07,17,00,11.20
2014,03,07,17,01,11.20
2014,03,07,17,02,11.20
2014,03,07,17,03,11.10
2014,03,07,17,04,11.10
2014,03,07,17,05,11.10
2014,03,07,17,06,11.00
2014,03,07,17,07,11.00
2014,03,07,17,08,11.00
2014,03,07,17,09,10.90
2014,03,07,17,10,10.90
2014,03,07,17,11,10.90
2014,03,07,17,12,10.80
2014,03,07,17,13,10.80
2014,03,07,17,14,10.80
2014,03,07,17,15,10.80
2014,03,07,17,16,10.70
2014,03,07,17,17,10.70
2014,03,07,17,18,10.60
2014,03,07,17,19,10.60
2014,03,07,17,20,10.60
2014,03,07,17,21,10.50
2014,03,07,17,22,10.50
2014,03,07,17,23,10.50
2014,03,07,17,24,10.40
2014,03,07,17,25,10.40
2014,03,07,17,26,10.40
2014,03,07,17,27,10.30
2014,03,07,17,28,10.30
2014,03,07,17,29,10.30
2014,03,07,17,30,10.30
2014,03,07,17,31,10.30
2014,03,07,17,32,10.20
2014,03,07,17,33,10.20
2014,03,07,17,34,10.20
2014,03,07,17,35,10.20
2014,03,07,17,36,10.20
2014,03,07,17,37,10.10
2014,03,07,17,38,10.10
2014,03,07,17,39,10.10
2014,03,07,17,40,10.10
2014,03,07,17,41,10.10
2014,03,07,17,42,10.10
2014,03,07,17,43,10.10
2014,03,07,17,44,10.00
2014,03,07,17,45,10.00
2014,03,07,17,46,10.00
2014,03,07,17,47,10.00
2014,03,07,17,48,9.90
2014,03,07,17,49,9.90
2014,03,07,17,50,9.90
2014,03,07,17,51,9.90